{"data":{"norad_id":51995,"intl_designator":"2022-025AR","name":"STARLINK-3636","alt_names":[],"object_type":"PAYLOAD","status":"ACTIVE","operator":null,"country":"US","launch_date":"2022-03-09","launch_site_code":"AFETR","launch_vehicle":null,"mission":null,"orbit_class":"UNKNOWN","rcs_meters":null,"size_class":null,"mass_kg":null,"dimensions":null,"purposes":["comms"],"wikipedia_slug":null,"has_3d_model":false,"image_url":null,"decayed_at":null,"tle_current":{"epoch":"2026-05-25T02:48:36.383328Z","epoch_age_seconds":61038,"freshness":"FRESH","line1":"1 51995U 22025AR  26145.11708777 -.00000401  00000+0 -70754-5 0  9990","line2":"2 51995  53.2139  36.0238 0001593  88.7104 271.4071 15.08837957232442","mean_motion":15.08837957,"eccentricity":0.0001593,"inclination_deg":53.2139,"raan_deg":36.0238,"arg_perigee_deg":88.7104,"mean_anomaly_deg":271.4071,"bstar":-7.0754e-6,"rev_number":23244,"period_min":95.437683902328,"perigee_km":538.6476142641,"apogee_km":540.85165294557,"semimajor_km":6917.8866336048,"source":"CELESTRAK","updated_at":"2026-05-25T13:38:16.998702Z"}}}